When you browse on this site, cookies collect data to enhance your experience and personalize the content and advertising you see.
Visit our Privacy Policy to learn more. By continuing to use the site, you agree to this use of cookies and data.
  • In Slovakia
  • List of Countries
  • For 7 days
  • Water Temperature
  • Satellite Maps
  • Weather Map
  • Weather Widgets
  • user-avatar
    Login

    Hourly Weather Rubas

    Today, 16 June, Sunday

    Time Temperature Precipitation Wind Pressure Humidity
    00:00 +21°C° 0 mm 1 mps 756 mmHg 67%
    01:00 +20°C° 0 mm 1 mps 756 mmHg 67%
    02:00 +18°C° 0 mm 0 mps 756 mmHg 67%
    03:00 +18°C° 0 mm 0 mps 756 mmHg 67%
    04:00 +19°C° 0 mm 0 mps 756 mmHg 63%
    05:00 +23°C° 0 mm 1 mps 756 mmHg 59%
    06:00 +24°C° 0 mm 1 mps 755 mmHg 55%
    07:00 +26°C° 0 mm 1 mps 755 mmHg 49%
    08:00 +28°C° 0 mm 1 mps 755 mmHg 44%
    09:00 +29°C° 0 mm 2 mps 755 mmHg 39%
    10:00 +30°C° 0 mm 2 mps 755 mmHg 37%
    11:00 +31°C° 0 mm 3 mps 754 mmHg 36%
    12:00 +33°C° 0 mm 4 mps 754 mmHg 34%
    13:00 +31°C° 0.1 mm 3 mps 754 mmHg 36%
    14:00 +30°C° 0.1 mm 3 mps 754 mmHg 39%
    15:00 +30°C° 0.1 mm 2 mps 753 mmHg 41%
    16:00 +29°C° 0.1 mm 2 mps 753 mmHg 45%
    17:00 +28°C° 0.1 mm 2 mps 753 mmHg 48%
    18:00 +27°C° 0.1 mm 1 mps 754 mmHg 52%
    19:00 +26°C° 0 mm 1 mps 754 mmHg 57%
    20:00 +24°C° 0 mm 1 mps 754 mmHg 62%
    21:00 +23°C° 0 mm 1 mps 754 mmHg 67%
    22:00 +23°C° 0 mm 1 mps 754 mmHg 68%
    23:00 +23°C° 0 mm 1 mps 753 mmHg 68%

    Tomorrow, 17 June, Monday

    Time Temperature Precipitation Wind Pressure Humidity
    00:00 +23°C° 0 mm 1 mps 753 mmHg 68%
    01:00 +23°C° 0 mm 1 mps 753 mmHg 67%
    02:00 +23°C° 0 mm 1 mps 753 mmHg 66%
    03:00 +23°C° 0 mm 1 mps 753 mmHg 65%
    04:00 +24°C° 0 mm 1 mps 753 mmHg 61%
    05:00 +26°C° 0 mm 1 mps 753 mmHg 57%
    06:00 +27°C° 0 mm 1 mps 753 mmHg 52%
    07:00 +29°C° 0 mm 1 mps 753 mmHg 48%
    08:00 +30°C° 0 mm 2 mps 753 mmHg 44%
    09:00 +31°C° 0 mm 3 mps 754 mmHg 40%
    10:00 +33°C° 0 mm 3 mps 754 mmHg 40%
    11:00 +33°C° 0 mm 3 mps 753 mmHg 39%
    12:00 +33°C° 0 mm 4 mps 753 mmHg 39%
    13:00 +33°C° 0.1 mm 4 mps 753 mmHg 40%
    14:00 +33°C° 0.1 mm 4 mps 753 mmHg 41%
    15:00 +32°C° 0.1 mm 4 mps 753 mmHg 42%
    16:00 +31°C° 0.1 mm 3 mps 753 mmHg 44%
    17:00 +30°C° 0.1 mm 2 mps 753 mmHg 45%
    18:00 +29°C° 0.1 mm 2 mps 753 mmHg 47%
    19:00 +28°C° 0.1 mm 2 mps 753 mmHg 51%
    20:00 +26°C° 0.1 mm 2 mps 754 mmHg 55%
    21:00 +25°C° 0.1 mm 2 mps 754 mmHg 60%
    22:00 +25°C° 0 mm 2 mps 754 mmHg 59%
    23:00 +25°C° 0 mm 2 mps 754 mmHg 59%

    Day after tomorrow, 18 June, Tuesday

    Time Temperature Precipitation Wind Pressure Humidity
    00:00 +25°C° 0 mm 3 mps 754 mmHg 58%
    01:00 +26°C° 0 mm 3 mps 754 mmHg 58%
    02:00 +26°C° 0 mm 3 mps 754 mmHg 57%
    03:00 +26°C° 0 mm 3 mps 754 mmHg 57%
    04:00 +27°C° 0 mm 3 mps 754 mmHg 55%
    05:00 +27°C° 0 mm 3 mps 754 mmHg 54%
    06:00 +28°C° 0 mm 3 mps 755 mmHg 53%
    07:00 +29°C° 0 mm 4 mps 755 mmHg 48%
    08:00 +30°C° 0 mm 5 mps 755 mmHg 44%
    09:00 +33°C° 0 mm 5 mps 755 mmHg 40%
    10:00 +33°C° 0 mm 5 mps 755 mmHg 40%
    11:00 +33°C° 0 mm 5 mps 755 mmHg 40%
    12:00 +33°C° 0 mm 5 mps 755 mmHg 40%
    13:00 +33°C° 0 mm 5 mps 755 mmHg 40%
    14:00 +32°C° 0 mm 5 mps 754 mmHg 40%
    15:00 +32°C° 0 mm 5 mps 754 mmHg 40%
    16:00 +30°C° 0 mm 5 mps 754 mmHg 42%
    17:00 +30°C° 0 mm 4 mps 755 mmHg 43%
    18:00 +29°C° 0 mm 4 mps 755 mmHg 45%
    19:00 +27°C° 0 mm 3 mps 755 mmHg 50%
    20:00 +26°C° 0 mm 3 mps 755 mmHg 56%
    21:00 +24°C° 0 mm 2 mps 755 mmHg 61%
    22:00 +24°C° 0 mm 2 mps 755 mmHg 61%
    23:00 +24°C° 0 mm 2 mps 755 mmHg 60%

    19 June, Wednesday

    Time Temperature Precipitation Wind Pressure Humidity
    00:00 +24°C° 0 mm 2 mps 755 mmHg 60%
    01:00 +24°C° 0 mm 2 mps 755 mmHg 59%
    02:00 +25°C° 0 mm 2 mps 755 mmHg 58%
    03:00 +25°C° 0 mm 2 mps 755 mmHg 58%
    04:00 +25°C° 0 mm 2 mps 755 mmHg 57%
    05:00 +26°C° 0 mm 2 mps 755 mmHg 55%
    06:00 +26°C° 0 mm 2 mps 755 mmHg 54%
    07:00 +28°C° 0 mm 2 mps 755 mmHg 50%
    08:00 +29°C° 0 mm 3 mps 755 mmHg 46%
    09:00 +30°C° 0 mm 4 mps 755 mmHg 41%
    10:00 +30°C° 0 mm 3 mps 755 mmHg 41%
    11:00 +31°C° 0 mm 3 mps 755 mmHg 40%
    12:00 +31°C° 0 mm 2 mps 755 mmHg 39%
    13:00 +31°C° 0 mm 2 mps 755 mmHg 40%
    14:00 +31°C° 0 mm 2 mps 754 mmHg 42%
    15:00 +30°C° 0 mm 2 mps 754 mmHg 43%
    16:00 +30°C° 0 mm 1 mps 754 mmHg 47%
    17:00 +29°C° 0 mm 1 mps 754 mmHg 51%
    18:00 +28°C° 0 mm 1 mps 755 mmHg 55%
    19:00 +27°C° 0 mm 1 mps 755 mmHg 59%
    20:00 +25°C° 0 mm 1 mps 755 mmHg 63%
    21:00 +24°C° 0 mm 1 mps 755 mmHg 67%
    22:00 +24°C° 0 mm 2 mps 755 mmHg 66%
    23:00 +24°C° 0 mm 2 mps 755 mmHg 65%

    20 June, Thursday

    Time Temperature Precipitation Wind Pressure Humidity
    00:00 +24°C° 0 mm 2 mps 755 mmHg 65%
    01:00 +23°C° 0 mm 2 mps 755 mmHg 67%
    02:00 +23°C° 0 mm 1 mps 755 mmHg 69%
    03:00 +22°C° 0 mm 1 mps 755 mmHg 71%
    04:00 +24°C° 0 mm 1 mps 755 mmHg 65%
    05:00 +26°C° 0 mm 2 mps 755 mmHg 60%
    06:00 +27°C° 0 mm 2 mps 755 mmHg 54%
    07:00 +29°C° 0 mm 2 mps 755 mmHg 50%
    08:00 +30°C° 0 mm 3 mps 755 mmHg 45%
    09:00 +31°C° 0 mm 3 mps 755 mmHg 41%
    10:00 +33°C° 0 mm 3 mps 755 mmHg 40%
    11:00 +33°C° 0 mm 4 mps 755 mmHg 38%
    12:00 +33°C° 0 mm 4 mps 755 mmHg 37%
    13:00 +33°C° 0 mm 4 mps 754 mmHg 36%
    14:00 +33°C° 0 mm 5 mps 754 mmHg 36%
    15:00 +33°C° 0 mm 6 mps 754 mmHg 35%
    16:00 +32°C° 0 mm 5 mps 754 mmHg 39%
    17:00 +30°C° 0 mm 5 mps 754 mmHg 42%
    18:00 +29°C° 0 mm 4 mps 754 mmHg 45%
    19:00 +28°C° 0 mm 4 mps 755 mmHg 50%
    20:00 +26°C° 0 mm 3 mps 755 mmHg 56%
    21:00 +24°C° 0 mm 3 mps 755 mmHg 61%
    22:00 +24°C° 0 mm 3 mps 755 mmHg 61%
    23:00 +24°C° 0 mm 3 mps 755 mmHg 60%

    21 June, Friday

    Time Temperature Precipitation Wind Pressure Humidity
    00:00 +24°C° 0 mm 3 mps 755 mmHg 60%
    01:00 +24°C° 0 mm 3 mps 755 mmHg 58%
    02:00 +24°C° 0 mm 3 mps 755 mmHg 57%
    03:00 +24°C° 0 mm 2 mps 755 mmHg 55%
    04:00 +25°C° 0 mm 2 mps 755 mmHg 52%
    05:00 +26°C° 0 mm 3 mps 755 mmHg 49%
    06:00 +27°C° 0 mm 3 mps 756 mmHg 46%
    07:00 +28°C° 0 mm 3 mps 756 mmHg 43%
    08:00 +30°C° 0 mm 4 mps 756 mmHg 40%
    09:00 +32°C° 0 mm 4 mps 756 mmHg 36%
    10:00 +30°C° 0.1 mm 4 mps 757 mmHg 42%
    11:00 +28°C° 0.1 mm 5 mps 757 mmHg 48%
    12:00 +27°C° 0.1 mm 5 mps 757 mmHg 54%
    13:00 +27°C° 0.4 mm 4 mps 757 mmHg 60%
    14:00 +26°C° 0.4 mm 3 mps 757 mmHg 66%
    15:00 +25°C° 0.4 mm 2 mps 757 mmHg 71%
    16:00 +26°C° 0 mm 2 mps 757 mmHg 68%
    17:00 +26°C° 0 mm 1 mps 757 mmHg 65%
    18:00 +27°C° 0 mm 1 mps 757 mmHg 62%
    19:00 +25°C° 0 mm 2 mps 757 mmHg 66%
    20:00 +24°C° 0 mm 2 mps 757 mmHg 70%
    21:00 +22°C° 0 mm 3 mps 757 mmHg 74%
    22:00 +23°C° 0 mm 2 mps 757 mmHg 73%
    23:00 +23°C° 0 mm 2 mps 757 mmHg 72%
    Show more